Weather History for Howell, MI

Change the Weather History Date:

Saturday, December 7, 2013

  Actual Average Record
Temperature  
Mean Temperature 17 °F -  
Max Temperature 23 °F 39 °F 55 °F (2004)
Min Temperature 11 °F 26 °F 10 °F (2000)
Degree Days  
Heating Degree Days 48    
Moisture  
Dew Point 8 °F    
Average Humidity 65    
Maximum Humidity 83    
Minimum Humidity 49    
Precipitation  
Precipitation 0.00 in - - ()
Sea Level Pressure  
Sea Level Pressure 30.50 in    
Wind  
Wind Speed 7 mph (WNW)    
Max Wind Speed 14 mph    
Max Gust Speed 18 mph    
Visibility 10 miles    
Events      
Averages and records for this station are not official NWS values.
T = Trace of Precipitation, MM = Missing Value Source: NWS Daily Summary

Daily Weather History Graph

Daily Weather History Graph

Search for Another Location

Airport:

Trip Planner

Search our weather history database for the weather conditions in past years. The results will help you decide how hot, cold, wet, or windy it might be!

Date:

Astronomy

Dec. 07, 2013 Rise Set
Actual Time 7:52 AM EST 5:02 PM EST
Civil Twilight 7:20 AM EST 5:34 PM EST
Nautical Twilight 6:45 AM EST 6:09 PM EST
Astronomical Twilight 6:11 AM EST 6:43 PM EST
Moon 11:32 AM EST (12/7) 10:48 PM EST (12/7)
Length of Visible Light 10h 13m
Length of Day
9h 09m
Waxing Crescent, 29% of the Moon is Illuminated
Dec 7
Waxing Crescent
Dec 9
First Quarter
Dec 17
Full
Dec 25
Last Quarter
Jan 1
New

Hourly Weather History & Observations

Time (EST) Temp. Windchill Dew Point Humidity Pressure Visibility Wind Dir Wind Speed Gust Speed Precip Events Conditions
12:15 AM 18.5 °F 7.5 °F 8.4 °F 65% 30.38 in 10.0 mi NW 9.2 mph - N/A   Overcast
12:35 AM 18.3 °F 8.2 °F 8.2 °F 65% 30.38 in 10.0 mi NW 8.1 mph - N/A   Overcast
12:55 AM 17.6 °F 7.3 °F 7.7 °F 65% 30.38 in 10.0 mi WNW 8.1 mph - N/A   Mostly Cloudy
1:14 AM 16.5 °F 9.4 °F 7.7 °F 68% 30.38 in 10.0 mi WNW 4.6 mph - N/A   Scattered Clouds
1:35 AM 15.3 °F 9.6 °F 7.9 °F 73% 30.38 in 10.0 mi WNW 3.5 mph - N/A   Scattered Clouds
1:55 AM 17.4 °F 12.1 °F 9.0 °F 69% 30.39 in 10.0 mi NW 3.5 mph - N/A   Overcast
2:14 AM 17.6 °F 10.7 °F 9.0 °F 69% 30.39 in 10.0 mi NNW 4.6 mph - N/A   Overcast
2:35 AM 17.6 °F 12.3 °F 8.8 °F 68% 30.40 in 10.0 mi NW 3.5 mph - N/A   Overcast
2:55 AM 18.1 °F 12.9 °F 9.7 °F 70% 30.40 in 10.0 mi WNW 3.5 mph - N/A   Overcast
3:14 AM 18.0 °F 11.1 °F 9.7 °F 70% 30.41 in 10.0 mi West 4.6 mph - N/A   Overcast
3:35 AM 18.1 °F 10.0 °F 9.5 °F 69% 30.41 in 10.0 mi West 5.8 mph - N/A   Overcast
3:55 AM 18.1 °F 8.9 °F 10.4 °F 72% 30.41 in 10.0 mi West 6.9 mph - N/A   Overcast
4:14 AM 18.3 °F 11.5 °F 10.4 °F 71% 30.41 in 10.0 mi West 4.6 mph - N/A   Overcast
4:35 AM 18.5 °F 10.4 °F 11.3 °F 73% 30.42 in 10.0 mi West 5.8 mph - N/A   Overcast
4:55 AM 18.7 °F 11.9 °F 11.5 °F 74% 30.42 in 10.0 mi West 4.6 mph - N/A   Overcast
5:14 AM 19.0 °F 10.0 °F 12.2 °F 75% 30.43 in 10.0 mi West 6.9 mph - N/A   Overcast
5:35 AM 19.0 °F 8.2 °F 12.2 °F 75% 30.43 in 10.0 mi WNW 9.2 mph - N/A   Overcast
5:55 AM 19.4 °F 7.9 °F 11.7 °F 72% 30.44 in 10.0 mi WNW 10.4 mph 16.1 mph N/A   Overcast
6:14 AM 18.9 °F 7.2 °F 9.9 °F 68% 30.45 in 10.0 mi WNW 10.4 mph 17.3 mph N/A   Overcast
6:35 AM 17.4 °F 6.2 °F 7.5 °F 65% 30.46 in 10.0 mi WNW 9.2 mph - N/A   Scattered Clouds
6:55 AM 16.7 °F 7.2 °F 7.0 °F 66% 30.46 in 10.0 mi NW 6.9 mph - N/A   Clear
7:15 AM 15.6 °F 5.9 °F 6.8 °F 68% 30.47 in 10.0 mi WNW 6.9 mph - N/A   Clear
7:35 AM 14.7 °F 4.8 °F 6.8 °F 71% 30.48 in 10.0 mi WNW 6.9 mph - N/A   Clear
7:54 AM 14.5 °F 4.6 °F 6.8 °F 71% 30.48 in 10.0 mi WNW 6.9 mph - N/A   Clear
8:15 AM 14.9 °F 6.1 °F 7.3 °F 72% 30.49 in 10.0 mi WNW 5.8 mph - N/A   Clear
8:35 AM 16.2 °F 6.5 °F 7.5 °F 69% 30.49 in 10.0 mi WNW 6.9 mph - N/A   Clear
8:54 AM 17.2 °F 6.8 °F 8.1 °F 67% 30.50 in 10.0 mi WNW 8.1 mph - N/A   Clear
9:15 AM 18.0 °F 7.7 °F 8.1 °F 65% 30.51 in 10.0 mi WNW 8.1 mph - N/A   Clear
9:35 AM 18.5 °F 6.1 °F 7.7 °F 63% 30.52 in 10.0 mi West 11.5 mph - N/A   Clear
9:54 AM 19.0 °F 6.1 °F 7.3 °F 60% 30.53 in 10.0 mi WNW 12.7 mph - N/A   Clear
10:15 AM 19.4 °F 6.6 °F 7.5 °F 60% 30.54 in 10.0 mi West 12.7 mph 18.4 mph N/A   Scattered Clouds
10:35 AM 19.4 °F 6.6 °F 6.4 °F 57% 30.54 in 10.0 mi West 12.7 mph - N/A   Scattered Clouds
10:54 AM 20.3 °F 7.2 °F 6.6 °F 56% 30.55 in 10.0 mi West 13.8 mph - N/A   Clear
11:15 AM 20.7 °F 8.8 °F 6.3 °F 54% 30.55 in 10.0 mi West 11.5 mph - N/A   Scattered Clouds
11:35 AM 21.2 °F 8.9 °F 6.6 °F 53% 30.55 in 10.0 mi West 12.7 mph 17.3 mph N/A   Scattered Clouds
11:54 AM 21.6 °F 9.9 °F 7.2 °F 54% 30.54 in 10.0 mi WNW 11.5 mph 17.3 mph N/A   Scattered Clouds
12:15 PM 21.6 °F 11.3 °F 7.2 °F 54% 30.54 in 10.0 mi WNW 9.2 mph - N/A   Scattered Clouds
12:35 PM 22.6 °F 11.9 °F 7.3 °F 52% 30.54 in 10.0 mi West 10.4 mph 17.3 mph N/A   Mostly Cloudy
12:55 PM 21.2 °F 9.5 °F 7.0 °F 54% 30.53 in 10.0 mi WNW 11.5 mph - N/A   Scattered Clouds
1:15 PM 22.3 °F 11.5 °F 7.3 °F 53% 30.53 in 10.0 mi West 10.4 mph 17.3 mph N/A   Clear
1:35 PM 22.3 °F 10.2 °F 7.5 °F 53% 30.53 in 10.0 mi WNW 12.7 mph 18.4 mph N/A   Clear
1:55 PM 22.8 °F 12.2 °F 7.3 °F 52% 30.52 in 10.0 mi West 10.4 mph - N/A   Clear
2:15 PM 22.6 °F 13.4 °F 6.6 °F 50% 30.52 in 10.0 mi West 8.1 mph - N/A   Clear
2:35 PM 23.0 °F 13.1 °F 6.4 °F 49% 30.51 in 10.0 mi West 9.2 mph - N/A   Clear
2:55 PM 23.0 °F 13.9 °F 6.6 °F 50% 30.51 in 10.0 mi NW 8.1 mph - N/A   Clear
3:15 PM 23.0 °F 12.4 °F 6.6 °F 50% 30.52 in 10.0 mi West 10.4 mph 16.1 mph N/A   Clear
3:35 PM 22.8 °F 12.2 °F 7.5 °F 52% 30.52 in 10.0 mi NW 10.4 mph - N/A   Clear
3:55 PM 22.5 °F 11.7 °F 7.0 °F 52% 30.53 in 10.0 mi West 10.4 mph - N/A   Clear
4:15 PM 21.7 °F 10.8 °F 6.8 °F 53% 30.53 in 10.0 mi West 10.4 mph - N/A   Clear
4:35 PM 20.7 °F 10.2 °F 6.8 °F 55% 30.53 in 10.0 mi West 9.2 mph - N/A   Clear
4:55 PM 20.1 °F 9.5 °F 6.8 °F 56% 30.53 in 10.0 mi West 9.2 mph - N/A   Clear
5:15 PM 18.9 °F 9.8 °F 6.8 °F 59% 30.53 in 10.0 mi West 6.9 mph - N/A   Clear
5:35 PM 17.2 °F 10.2 °F 6.8 °F 64% 30.54 in 10.0 mi WNW 4.6 mph - N/A   Clear
5:55 PM 16.3 °F 10.8 °F 7.3 °F 68% 30.54 in 10.0 mi WNW 3.5 mph - N/A   Clear
6:14 PM 16.0 °F 7.4 °F 7.5 °F 69% 30.55 in 10.0 mi West 5.8 mph - N/A   Clear
6:35 PM 16.9 °F 8.5 °F 7.7 °F 67% 30.56 in 10.0 mi West 5.8 mph - N/A   Clear
6:55 PM 16.5 °F 8.1 °F 7.5 °F 68% 30.57 in 10.0 mi West 5.8 mph - N/A   Clear
7:14 PM 15.8 °F 8.6 °F 7.3 °F 69% 30.56 in 10.0 mi West 4.6 mph - N/A   Clear
7:35 PM 15.3 °F 7.9 °F 7.2 °F 70% 30.57 in 10.0 mi West 4.6 mph - N/A   Clear
7:55 PM 14.7 °F 9.0 °F 7.0 °F 71% 30.57 in 10.0 mi West 3.5 mph - N/A   Clear
8:15 PM 15.1 °F 6.4 °F 7.5 °F 72% 30.57 in 10.0 mi West 5.8 mph - N/A   Clear
8:35 PM 14.0 °F 8.2 °F 7.5 °F 75% 30.57 in 10.0 mi West 3.5 mph - N/A   Clear
8:55 PM 13.5 °F 5.8 °F 6.8 °F 75% 30.57 in 10.0 mi WNW 4.6 mph - N/A   Clear
9:15 PM 13.3 °F 7.3 °F 7.2 °F 77% 30.57 in 10.0 mi West 3.5 mph - N/A   Clear
9:35 PM 13.8 °F - 6.8 °F 74% 30.57 in 10.0 mi Calm Calm - N/A   Clear
9:55 PM 14.0 °F - 7.2 °F 74% 30.56 in 10.0 mi Calm Calm - N/A   Clear
10:15 PM 14.0 °F 8.2 °F 6.8 °F 73% 30.57 in 10.0 mi West 3.5 mph - N/A   Clear
10:35 PM 13.6 °F 7.7 °F 6.8 °F 74% 30.56 in 10.0 mi West 3.5 mph - N/A   Clear
10:55 PM 12.9 °F - 6.4 °F 75% 30.56 in 10.0 mi Calm Calm - N/A   Clear
11:15 PM 12.2 °F 6.1 °F 6.1 °F 76% 30.56 in 10.0 mi WSW 3.5 mph - N/A   Clear
11:35 PM 11.3 °F 5.1 °F 6.6 °F 81% 30.56 in 10.0 mi SW 3.5 mph - N/A   Clear
11:55 PM 11.3 °F - 7.0 °F 83% 30.55 in 10.0 mi Calm Calm - N/A   Clear